| time (UTC) | temp F | wind direction | speed knots | gust knots | rain 1hr in | rain 24hr in | rain mn in | humidity % | barometer mb |
| 20260506023502 | 77 | 255 | 0.0 | 2.6 | 0.00 | 0.00 | 0.00 | 85 | 1008.6 |
| 20260506023026 | 77 | 262 | 0.0 | 3.5 | 0.00 | 0.00 | 0.00 | 85 | 1008.4 |
| 20260506022505 | 77 | 311 | 0.0 | 3.5 | 0.00 | 0.00 | 0.00 | 85 | 1008.4 |
| 20260506022012 | 77 | 136 | 0.0 | 2.6 | 0.00 | 0.00 | 0.00 | 85 | 1008.3 |
| 20260506021529 | 77 | 219 | 0.0 | 2.6 | 0.00 | 0.00 | 0.00 | 85 | 1008.3 |
| 20260506021002 | 77 | 192 | 0.0 | 0.9 | 0.00 | 0.00 | 0.00 | 85 | 1008.1 |
| 20260506020507 | 77 | 245 | 0.0 | 0.9 | 0.00 | 0.00 | 0.00 | 85 | 1008.1 |
| 20260506020010 | 77 | 132 | 0.0 | 0.0 | 0.00 | 0.00 | 0.00 | 85 | 1008.0 |
| 20260506015503 | 77 | 163 | 0.0 | 0.9 | 0.00 | 0.00 | 0.00 | 85 | 1008.0 |
| 20260506015007 | 77 | 230 | 0.0 | 0.9 | 0.00 | 0.00 | 0.00 | 84 | 1007.9 |
| 20260506014508 | 77 | 230 | 0.0 | 0.0 | 0.00 | 0.00 | 0.00 | 84 | 1007.8 |
| 20260506014007 | 78 | 249 | 0.0 | 3.5 | 0.00 | 0.00 | 0.00 | 84 | 1007.8 |
| 20260506013506 | 78 | 248 | 0.0 | 3.5 | 0.00 | 0.00 | 0.00 | 84 | 1007.7 |
| 20260506013007 | 78 | 250 | 0.0 | 3.5 | 0.00 | 0.00 | 0.00 | 84 | 1007.6 |
| 20260506012506 | 78 | 257 | 0.0 | 2.6 | 0.00 | 0.00 | 0.00 | 84 | 1007.5 |
| 20260506012004 | 78 | 224 | 0.0 | 2.6 | 0.00 | 0.00 | 0.00 | 83 | 1007.5 |
| 20260506011507 | 78 | 221 | 0.0 | 1.7 | 0.00 | 0.00 | 0.00 | 83 | 1007.4 |
| 20260506011008 | 78 | 214 | 0.0 | 0.9 | 0.00 | 0.00 | 0.00 | 83 | 1007.3 |
| 20260506010505 | 79 | 214 | 0.0 | 3.5 | 0.00 | 0.00 | 0.00 | 82 | 1007.3 |
| 20260506010041 | 79 | 221 | 0.0 | 6.1 | 0.00 | 0.00 | 0.00 | 82 | 1007.3 |
| 20260506005506 | 79 | 174 | 0.0 | 6.1 | 0.00 | 0.00 | 0.00 | 82 | 1007.1 |
| 20260506005003 | 79 | 169 | 0.0 | 4.3 | 0.00 | 0.00 | 0.00 | 81 | 1006.9 |
| 20260506004525 | 79 | 106 | 0.0 | 3.5 | 0.00 | 0.00 | 0.00 | 81 | 1007.0 |
| 20260506004004 | 79 | 121 | 0.0 | 3.5 | 0.00 | 0.00 | 0.00 | 81 | 1007.0 |
| 20260506003509 | 79 | 244 | 0.0 | 2.6 | 0.00 | 0.00 | 0.00 | 81 | 1007.1 |
| 20260506003020 | 79 | 93 | 0.0 | 2.6 | 0.00 | 0.00 | 0.00 | 81 | 1007.0 |
| 20260506002507 | 80 | 101 | 0.0 | 1.7 | 0.00 | 0.00 | 0.00 | 81 | 1007.1 |
| 20260506002009 | 80 | 128 | 0.0 | 0.9 | 0.00 | 0.00 | 0.00 | 81 | 1007.1 |
| 20260506001515 | 80 | 178 | 0.0 | 2.6 | 0.00 | 0.00 | 0.00 | 81 | 1007.0 |
| 20260506001003 | 80 | 195 | 0.0 | 2.6 | 0.00 | 0.00 | 0.00 | 81 | 1007.0 |
| 20260506000507 | 80 | 263 | 0.0 | 1.7 | 0.00 | 0.00 | 0.00 | 80 | 1007.3 |
| 20260506000015 | 81 | 291 | 0.0 | 1.7 | 0.00 | 0.00 | 0.00 | 80 | 1007.2 |
| 20260505235509 | 81 | 98 | 0.0 | 1.7 | 0.00 | 0.00 | 0.00 | 80 | 1006.9 |
| 20260505235007 | 81 | 117 | 0.9 | 1.7 | 0.00 | 0.00 | 0.00 | 79 | 1006.8 |
| 20260505234525 | 81 | 156 | 0.0 | 0.9 | 0.00 | 0.00 | 0.00 | 79 | 1007.0 |
| 20260505234007 | 82 | 223 | 0.0 | 0.9 | 0.00 | 0.00 | 0.00 | 79 | 1007.0 |
| 20260505233503 | 82 | 268 | 0.0 | 2.6 | 0.00 | 0.00 | 0.00 | 78 | 1006.9 |
| 20260505233010 | 82 | 269 | 0.0 | 4.3 | 0.00 | 0.00 | 0.00 | 78 | 1006.8 |
| 20260505232510 | 82 | 122 | 0.0 | 4.3 | 0.00 | 0.00 | 0.00 | 78 | 1006.7 |
| 20260505232007 | 82 | 200 | 0.9 | 7.8 | 0.00 | 0.00 | 0.00 | 78 | 1006.8 |
| 20260505231531 | 82 | 98 | 0.9 | 7.8 | 0.00 | 0.00 | 0.00 | 77 | 1006.7 |
| 20260505231006 | 82 | 199 | 0.0 | 4.3 | 0.00 | 0.00 | 0.00 | 78 | 1006.7 |
| 20260505230504 | 82 | 115 | 0.0 | 4.3 | 0.00 | 0.00 | 0.00 | 77 | 1006.9 |
| 20260505230025 | 82 | 26 | 0.0 | 4.3 | 0.00 | 0.00 | 0.00 | 77 | 1007.0 |
| 20260505225508 | 82 | 274 | 0.9 | 5.2 | 0.00 | 0.00 | 0.00 | 77 | 1006.9 |
| 20260505225006 | 82 | 190 | 0.9 | 5.2 | 0.00 | 0.00 | 0.00 | 76 | 1007.0 |
| 20260505224522 | 82 | 240 | 0.9 | 4.3 | 0.00 | 0.00 | 0.00 | 77 | 1006.9 |
| 20260505224006 | 83 | 107 | 0.0 | 4.3 | 0.00 | 0.00 | 0.00 | 79 | 1006.9 |
| 20260505223519 | 82 | 279 | 0.0 | 4.3 | 0.00 | 0.00 | 0.00 | 78 | 1006.8 |
| 20260505223020 | 82 | 205 | 0.9 | 4.3 | 0.00 | 0.00 | 0.00 | 77 | 1006.7 |
| 20260505222509 | 82 | 262 | 1.7 | 6.1 | 0.00 | 0.00 | 0.00 | 76 | 1006.8 |
| 20260505222008 | 83 | 103 | 0.9 | 6.1 | 0.00 | 0.00 | 0.00 | 76 | 1007.0 |
| 20260505221517 | 83 | 107 | 0.0 | 5.2 | 0.00 | 0.00 | 0.00 | 77 | 1006.9 |
| 20260505221016 | 83 | 98 | 1.7 | 5.2 | 0.00 | 0.00 | 0.00 | 76 | 1006.9 |
| 20260505220508 | 83 | 154 | 0.0 | 6.1 | 0.00 | 0.00 | 0.00 | 77 | 1007.0 |
| 20260505220015 | 83 | 168 | 0.9 | 6.1 | 0.00 | 0.00 | 0.00 | 76 | 1007.1 |
| 20260505215508 | 83 | 211 | 0.9 | 5.2 | 0.00 | 0.00 | 0.00 | 75 | 1007.0 |
| 20260505215008 | 83 | 233 | 0.0 | 3.5 | 0.00 | 0.00 | 0.00 | 76 | 1007.2 |
| 20260505214512 | 83 | 100 | 0.0 | 4.3 | 0.00 | 0.00 | 0.00 | 77 | 1007.3 |
| 20260505214009 | 83 | 110 | 0.9 | 4.3 | 0.00 | 0.00 | 0.00 | 76 | 1007.4 |
| 20260505213503 | 83 | 195 | 0.9 | 3.5 | 0.00 | 0.00 | 0.00 | 76 | 1007.5 |
| 20260505213024 | 83 | 220 | 0.0 | 6.1 | 0.00 | 0.00 | 0.00 | 76 | 1007.6 |
| 20260505212515 | 83 | 228 | 1.7 | 6.1 | 0.00 | 0.00 | 0.00 | 75 | 1007.6 |
| 20260505212009 | 83 | 82 | 0.9 | 4.3 | 0.00 | 0.00 | 0.00 | 77 | 1007.7 |
| 20260505211526 | 83 | 285 | 0.9 | 5.2 | 0.00 | 0.00 | 0.00 | 76 | 1007.8 |
| 20260505211006 | 83 | 276 | 0.9 | 5.2 | 0.00 | 0.00 | 0.00 | 75 | 1007.8 |
| 20260505210503 | 84 | 206 | 0.0 | 4.3 | 0.00 | 0.00 | 0.00 | 76 | 1007.8 |
| 20260505210024 | 84 | 250 | 0.0 | 6.1 | 0.00 | 0.00 | 0.00 | 75 | 1007.9 |
| 20260505205504 | 85 | 39 | 0.9 | 7.8 | 0.00 | 0.00 | 0.00 | 73 | 1008.0 |
| 20260505205012 | 85 | 196 | 1.7 | 7.8 | 0.00 | 0.00 | 0.00 | 73 | 1008.0 |
| 20260505204523 | 85 | 219 | 1.7 | 6.1 | 0.00 | 0.00 | 0.00 | 73 | 1008.0 |
| 20260505204010 | 85 | 209 | 1.7 | 6.1 | 0.00 | 0.00 | 0.00 | 73 | 1008.0 |
| 20260505203512 | 85 | 126 | 0.9 | 4.3 | 0.00 | 0.00 | 0.00 | 73 | 1008.1 |
| 20260505203033 | 85 | 259 | 0.9 | 5.2 | 0.00 | 0.00 | 0.00 | 77 | 1008.2 |
| 20260505202508 | 84 | 209 | 0.9 | 5.2 | 0.00 | 0.00 | 0.00 | 75 | 1008.2 |
| 20260505202009 | 84 | 115 | 1.7 | 7.0 | 0.00 | 0.00 | 0.00 | 77 | 1008.3 |
| 20260505201525 | 83 | 255 | 2.6 | 7.0 | 0.00 | 0.00 | 0.00 | 75 | 1008.4 |
| 20260505201010 | 83 | 237 | 1.7 | 7.8 | 0.00 | 0.00 | 0.00 | 76 | 1008.3 |
| 20260505200514 | 83 | 181 | 1.7 | 7.8 | 0.00 | 0.00 | 0.00 | 76 | 1008.4 |
| 20260505200015 | 83 | 94 | 0.0 | 7.8 | 0.00 | 0.00 | 0.00 | 77 | 1008.5 |
| 20260505195511 | 83 | 195 | 1.7 | 7.8 | 0.00 | 0.00 | 0.00 | 76 | 1008.7 |
| 20260505195007 | 83 | 122 | 0.9 | 7.0 | 0.00 | 0.00 | 0.00 | 76 | 1008.7 |
| 20260505194528 | 83 | 124 | 0.0 | 7.0 | 0.00 | 0.00 | 0.00 | 76 | 1008.8 |
| 20260505194009 | 83 | 275 | 0.9 | 4.3 | 0.00 | 0.00 | 0.00 | 76 | 1008.9 |
| 20260505193505 | 83 | 135 | 0.9 | 7.0 | 0.00 | 0.00 | 0.00 | 78 | 1008.9 |
| 20260505193025 | 83 | 257 | 0.0 | 7.8 | 0.00 | 0.00 | 0.00 | 79 | 1008.9 |
| 20260505192508 | 82 | 62 | 0.9 | 8.7 | 0.00 | 0.00 | 0.00 | 77 | 1009.0 |
| 20260505192004 | 82 | 245 | 1.7 | 8.7 | 0.00 | 0.00 | 0.00 | 77 | 1009.0 |
| 20260505191527 | 82 | 219 | 2.6 | 7.8 | 0.00 | 0.00 | 0.00 | 78 | 1008.9 |
| 20260505191011 | 82 | 75 | 0.9 | 7.0 | 0.00 | 0.00 | 0.00 | 78 | 1009.0 |
| 20260505190510 | 82 | 241 | 1.7 | 4.3 | 0.00 | 0.00 | 0.00 | 78 | 1009.1 |
| 20260505190024 | 82 | 223 | 0.0 | 6.1 | 0.00 | 0.00 | 0.00 | 79 | 1009.1 |
| 20260505185507 | 82 | 264 | 0.9 | 6.1 | 0.00 | 0.00 | 0.00 | 80 | 1009.0 |
| 20260505185012 | 81 | 98 | 0.9 | 7.0 | 0.00 | 0.00 | 0.00 | 79 | 1009.2 |
| 20260505184526 | 82 | 11 | 1.7 | 9.6 | 0.00 | 0.00 | 0.00 | 78 | 1009.1 |
| 20260505184006 | 82 | 216 | 1.7 | 9.6 | 0.00 | 0.00 | 0.00 | 79 | 1009.3 |
| 20260505183511 | 82 | 86 | 0.9 | 6.1 | 0.00 | 0.00 | 0.00 | 80 | 1009.2 |
| 20260505183021 | 81 | 309 | 0.0 | 5.2 | 0.00 | 0.00 | 0.00 | 81 | 1009.2 |
| 20260505182517 | 81 | 135 | 0.9 | 5.2 | 0.00 | 0.00 | 0.00 | 82 | 1009.3 |
| 20260505182012 | 80 | 217 | 0.0 | 6.1 | 0.00 | 0.00 | 0.00 | 82 | 1009.4 |
| 20260505181521 | 80 | 249 | 1.7 | 6.1 | 0.00 | 0.00 | 0.00 | 81 | 1009.5 |
| 20260505181006 | 80 | 146 | 2.6 | 6.1 | 0.00 | 0.00 | 0.00 | 81 | 1009.5 |
| 20260505180505 | 80 | 210 | 1.7 | 4.3 | 0.00 | 0.00 | 0.00 | 81 | 1009.6 |
| 20260505180037 | 80 | 91 | 0.9 | 3.5 | 0.00 | 0.00 | 0.00 | 81 | 1009.5 |
| 20260505175504 | 80 | 149 | 1.7 | 7.8 | 0.00 | 0.00 | 0.00 | 82 | 1009.6 |
| 20260505175010 | 80 | 214 | 0.9 | 7.8 | 0.00 | 0.00 | 0.00 | 83 | 1009.6 |
| 20260505174532 | 79 | 128 | 0.0 | 5.2 | 0.00 | 0.00 | 0.00 | 83 | 1009.6 |
| 20260505174004 | 79 | 233 | 1.7 | 6.1 | 0.00 | 0.00 | 0.00 | 82 | 1009.6 |
| 20260505173506 | 79 | 208 | 0.0 | 6.1 | 0.00 | 0.00 | 0.00 | 84 | 1009.6 |
| 20260505173020 | 78 | 100 | 0.9 | 5.2 | 0.00 | 0.00 | 0.00 | 85 | 1009.6 |
| 20260505172502 | 78 | 204 | 1.7 | 7.0 | 0.00 | 0.00 | 0.00 | 84 | 1009.7 |
| 20260505172006 | 78 | 82 | 0.0 | 7.0 | 0.00 | 0.00 | 0.00 | 84 | 1009.8 |
| 20260505171516 | 78 | 226 | 0.0 | 2.6 | 0.00 | 0.00 | 0.00 | 84 | 1009.8 |
| 20260505171007 | 79 | 165 | 0.9 | 3.5 | 0.00 | 0.00 | 0.00 | 83 | 1009.8 |
| 20260505170508 | 79 | 219 | 0.0 | 3.5 | 0.00 | 0.00 | 0.00 | 84 | 1009.8 |
| 20260505170006 | 79 | 264 | 0.0 | 3.5 | 0.00 | 0.00 | 0.00 | 84 | 1009.8 |
| 20260505165509 | 79 | 183 | 0.9 | 4.3 | 0.00 | 0.00 | 0.00 | 83 | 1009.9 |
| 20260505165008 | 79 | 193 | 0.9 | 5.2 | 0.00 | 0.00 | 0.00 | 84 | 1010.0 |
| 20260505164506 | 78 | 238 | 1.7 | 5.2 | 0.00 | 0.00 | 0.00 | 84 | 1010.0 |
| 20260505164007 | 78 | 120 | 0.0 | 7.0 | 0.00 | 0.00 | 0.00 | 85 | 1009.9 |
| 20260505163504 | 78 | 207 | 0.9 | 7.0 | 0.00 | 0.00 | 0.00 | 85 | 1009.9 |
| 20260505163024 | 77 | 97 | 0.9 | 4.3 | 0.00 | 0.00 | 0.00 | 86 | 1010.1 |
| 20260505162504 | 77 | 256 | 1.7 | 6.1 | 0.00 | 0.00 | 0.00 | 85 | 1010.1 |
| 20260505162003 | 77 | 209 | 1.7 | 6.1 | 0.00 | 0.00 | 0.00 | 86 | 1009.9 |
| 20260505161521 | 77 | 212 | 1.7 | 6.1 | 0.00 | 0.00 | 0.00 | 86 | 1010.0 |
| 20260505161003 | 77 | 223 | 1.7 | 6.1 | 0.00 | 0.00 | 0.00 | 86 | 1010.0 |
| 20260505160511 | 77 | 184 | 0.9 | 5.2 | 0.00 | 0.00 | 0.00 | 86 | 1009.9 |
| 20260505153012 | 76 | 96 | 0.0 | 4.3 | 0.00 | 0.00 | 0.00 | 86 | 1009.6 |
| 20260505152512 | 76 | 196 | 0.9 | 6.1 | 0.00 | 0.00 | 0.00 | 86 | 1009.5 |
| 20260505152010 | 76 | 209 | 0.0 | 6.1 | 0.00 | 0.00 | 0.00 | 86 | 1009.6 |
| 20260505151513 | 76 | 8 | 0.9 | 5.2 | 0.00 | 0.00 | 0.00 | 86 | 1009.7 |
| 20260505151010 | 76 | 248 | 0.0 | 2.6 | 0.00 | 0.00 | 0.00 | 87 | 1009.7 |
| 20260505150510 | 76 | 263 | 0.0 | 6.1 | 0.00 | 0.00 | 0.00 | 87 | 1009.5 |
| 20260505140507 | 74 | 198 | 0.0 | 2.6 | 0.00 | 0.00 | 0.00 | 89 | 1009.4 |
| 20260505125004 | 71 | 212 | 0.0 | 3.5 | 0.00 | 0.00 | 0.00 | 92 | 1009.3 |
| 20260505124531 | 71 | 238 | 0.0 | 3.5 | 0.00 | 0.00 | 0.00 | 92 | 1009.2 |
| 20260505124007 | 71 | 299 | 0.0 | 0.9 | 0.00 | 0.00 | 0.00 | 93 | 1008.9 |
| 20260505123504 | 71 | 266 | 0.0 | 0.9 | 0.00 | 0.00 | 0.00 | 93 | 1008.7 |
| 20260505123023 | 70 | 188 | 0.0 | 2.6 | 0.00 | 0.00 | 0.00 | 93 | 1008.8 |
| 20260505122505 | 70 | 221 | 0.0 | 4.3 | 0.00 | 0.00 | 0.00 | 93 | 1008.9 |
| 20260505122007 | 70 | 229 | 0.0 | 4.3 | 0.00 | 0.00 | 0.00 | 93 | 1008.9 |
| 20260505121523 | 70 | 101 | 0.9 | 2.6 | 0.00 | 0.00 | 0.00 | 93 | 1009.0 |
| 20260505121003 | 70 | 273 | 0.0 | 3.5 | 0.00 | 0.00 | 0.00 | 93 | 1009.1 |
| 20260505120513 | 70 | 272 | 0.0 | 3.5 | 0.00 | 0.00 | 0.00 | 93 | 1009.0 |
| 20260505120020 | 70 | 260 | 0.0 | 0.9 | 0.00 | 0.00 | 0.00 | 92 | 1009.0 |
| 20260505115504 | 70 | 217 | 0.0 | 0.9 | 0.00 | 0.00 | 0.00 | 92 | 1008.8 |
| 20260505115013 | 70 | 208 | 0.0 | 0.9 | 0.00 | 0.00 | 0.00 | 92 | 1008.7 |
| 20260505114517 | 70 | 198 | 0.0 | 0.9 | 0.00 | 0.00 | 0.00 | 92 | 1008.6 |
| 20260505114012 | 70 | 244 | 0.0 | 1.7 | 0.00 | 0.00 | 0.00 | 92 | 1008.5 |
| 20260505113507 | 70 | 233 | 0.0 | 1.7 | 0.00 | 0.00 | 0.00 | 92 | 1008.5 |
| 20260505113019 | 70 | 244 | 0.0 | 1.7 | 0.00 | 0.00 | 0.00 | 92 | 1008.6 |
| 20260505112509 | 70 | 254 | 0.0 | 1.7 | 0.00 | 0.00 | 0.00 | 92 | 1009.0 |
| 20260505112004 | 70 | 217 | 0.0 | 0.9 | 0.00 | 0.00 | 0.00 | 92 | 1008.9 |
| 20260505111528 | 70 | 221 | 0.0 | 0.9 | 0.00 | 0.00 | 0.00 | 92 | 1008.8 |
| 20260505111010 | 70 | 221 | 0.0 | 2.6 | 0.00 | 0.00 | 0.00 | 92 | 1008.8 |
| 20260505110504 | 70 | 220 | 0.0 | 2.6 | 0.00 | 0.00 | 0.00 | 92 | 1008.8 |
| 20260505102010 | 69 | 221 | 0.0 | 0.9 | 0.00 | 0.00 | 0.00 | 92 | 1008.9 |
| 20260505101532 | 69 | 221 | 0.0 | 0.9 | 0.00 | 0.00 | 0.00 | 92 | 1009.0 |
| 20260505101007 | 69 | 121 | 0.0 | 0.0 | 0.00 | 0.00 | 0.00 | 92 | 1008.8 |
| 20260505100506 | 69 | 226 | 0.0 | 0.9 | 0.00 | 0.00 | 0.00 | 92 | 1008.7 |
| 20260505100023 | 69 | 226 | 0.0 | 0.9 | 0.00 | 0.00 | 0.00 | 92 | 1008.8 |
| 20260505095510 | 69 | 190 | 0.0 | 0.9 | 0.00 | 0.00 | 0.00 | 92 | 1008.8 |
| 20260505095008 | 69 | 194 | 0.0 | 0.9 | 0.00 | 0.00 | 0.00 | 92 | 1009.0 |
| 20260505094520 | 69 | 321 | 0.0 | 0.9 | 0.00 | 0.00 | 0.00 | 92 | 1008.9 |
| 20260505094011 | 69 | 257 | 0.0 | 0.9 | 0.00 | 0.00 | 0.00 | 92 | 1008.9 |
| 20260505093509 | 69 | 259 | 0.0 | 0.9 | 0.00 | 0.00 | 0.00 | 92 | 1008.9 |
| 20260505093035 | 69 | 259 | 0.0 | 0.0 | 0.00 | 0.00 | 0.00 | 91 | 1008.9 |
| 20260505092510 | 69 | 259 | 0.0 | 0.9 | 0.00 | 0.00 | 0.00 | 91 | 1008.9 |
| 20260505092008 | 69 | 259 | 0.0 | 0.9 | 0.00 | 0.00 | 0.00 | 91 | 1009.0 |
| 20260505091527 | 69 | 226 | 0.0 | 0.9 | 0.00 | 0.00 | 0.00 | 91 | 1009.1 |
| 20260505091003 | 69 | 271 | 0.0 | 0.9 | 0.00 | 0.00 | 0.00 | 91 | 1009.2 |
| 20260505090504 | 69 | 271 | 0.0 | 0.9 | 0.00 | 0.00 | 0.00 | 91 | 1009.2 |
| 20260505090014 | 69 | 283 | 0.0 | 0.9 | 0.00 | 0.00 | 0.00 | 91 | 1009.2 |
| 20260505085503 | 69 | 229 | 0.0 | 0.9 | 0.00 | 0.00 | 0.00 | 91 | 1009.2 |
| 20260505085009 | 69 | 218 | 0.0 | 2.6 | 0.00 | 0.00 | 0.00 | 91 | 1009.2 |
| 20260505084508 | 69 | 217 | 0.0 | 2.6 | 0.00 | 0.00 | 0.00 | 90 | 1009.2 |
| 20260505084008 | 69 | 204 | 0.0 | 2.6 | 0.00 | 0.00 | 0.00 | 90 | 1009.2 |
| 20260505083513 | 69 | 203 | 0.0 | 2.6 | 0.00 | 0.00 | 0.00 | 90 | 1009.2 |
| 20260505083011 | 69 | 212 | 0.0 | 1.7 | 0.00 | 0.00 | 0.00 | 90 | 1009.2 |
| 20260505082503 | 69 | 195 | 0.0 | 0.9 | 0.00 | 0.00 | 0.00 | 90 | 1009.4 |
| 20260505082003 | 69 | 224 | 0.0 | 0.9 | 0.00 | 0.00 | 0.00 | 89 | 1009.6 |
| 20260505081507 | 69 | 174 | 0.0 | 0.9 | 0.00 | 0.00 | 0.00 | 89 | 1009.6 |
| 20260505081008 | 69 | 238 | 0.0 | 1.7 | 0.00 | 0.00 | 0.00 | 89 | 1009.5 |
| 20260505080504 | 69 | 236 | 0.0 | 1.7 | 0.00 | 0.00 | 0.00 | 89 | 1009.5 |
| 20260505080018 | 70 | 205 | 0.0 | 1.7 | 0.00 | 0.00 | 0.00 | 89 | 1009.6 |
| 20260505075507 | 70 | 225 | 0.0 | 1.7 | 0.00 | 0.00 | 0.00 | 89 | 1009.8 |
| 20260505075003 | 69 | 233 | 0.0 | 1.7 | 0.00 | 0.00 | 0.00 | 89 | 1009.9 |
| 20260505074517 | 69 | 214 | 0.0 | 1.7 | 0.00 | 0.00 | 0.00 | 89 | 1009.7 |
| 20260505074006 | 69 | 231 | 0.0 | 0.9 | 0.00 | 0.00 | 0.00 | 89 | 1009.7 |
| 20260505073508 | 69 | 257 | 0.0 | 0.9 | 0.00 | 0.00 | 0.00 | 89 | 1009.8 |
| 20260505073018 | 69 | 274 | 0.0 | 0.9 | 0.00 | 0.00 | 0.00 | 89 | 1009.9 |
| 20260505072507 | 69 | 145 | 0.0 | 0.9 | 0.00 | 0.00 | 0.00 | 89 | 1009.8 |
| 20260505072007 | 69 | 215 | 0.0 | 0.9 | 0.00 | 0.00 | 0.00 | 88 | 1010.0 |
| 20260505071514 | 69 | 207 | 0.0 | 0.9 | 0.00 | 0.00 | 0.00 | 88 | 1010.0 |
| 20260505071003 | 69 | 130 | 0.0 | 1.7 | 0.00 | 0.00 | 0.00 | 88 | 1010.1 |
| 20260505070506 | 69 | 235 | 0.0 | 1.7 | 0.00 | 0.00 | 0.00 | 88 | 1010.1 |
| 20260505070012 | 69 | 203 | 0.0 | 1.7 | 0.00 | 0.00 | 0.00 | 88 | 1010.1 |
| 20260505065511 | 69 | 243 | 0.0 | 0.9 | 0.00 | 0.00 | 0.00 | 88 | 1010.2 |
| 20260505065005 | 69 | 232 | 0.0 | 0.9 | 0.00 | 0.00 | 0.00 | 88 | 1010.2 |
| 20260505064511 | 69 | 236 | 0.0 | 0.9 | 0.00 | 0.00 | 0.00 | 88 | 1010.3 |
| 20260505064007 | 69 | 241 | 0.0 | 0.9 | 0.00 | 0.00 | 0.00 | 88 | 1010.3 |
| 20260505063506 | 69 | 110 | 0.0 | 0.9 | 0.00 | 0.00 | 0.00 | 88 | 1010.3 |
| 20260505063013 | 69 | 155 | 0.0 | 0.9 | 0.00 | 0.00 | 0.00 | 88 | 1010.3 |
| 20260505062512 | 69 | 113 | 0.0 | 1.7 | 0.00 | 0.00 | 0.00 | 88 | 1010.5 |
| 20260505062004 | 69 | 205 | 0.0 | 1.7 | 0.00 | 0.00 | 0.00 | 88 | 1010.4 |
| 20260505061521 | 69 | 246 | 0.0 | 0.9 | 0.00 | 0.00 | 0.00 | 87 | 1010.4 |
| 20260505061008 | 69 | 117 | 0.0 | 3.5 | 0.00 | 0.00 | 0.00 | 87 | 1010.4 |
| 20260505060503 | 69 | 222 | 0.0 | 3.5 | 0.00 | 0.00 | 0.00 | 87 | 1010.5 |
| 20260505060023 | 69 | 124 | 0.0 | 3.5 | 0.00 | 0.00 | 0.00 | 87 | 1010.7 |
| 20260505055506 | 69 | 194 | 0.0 | 0.9 | 0.00 | 0.00 | 0.00 | 87 | 1010.7 |
| 20260505055003 | 69 | 276 | 0.0 | 1.7 | 0.00 | 0.00 | 0.00 | 87 | 1010.6 |
| 20260505054522 | 69 | 306 | 0.0 | 1.7 | 0.00 | 0.00 | 0.00 | 87 | 1010.7 |
| 20260505054006 | 69 | 126 | 0.0 | 1.7 | 0.00 | 0.00 | 0.00 | 86 | 1010.7 |
| 20260505053510 | 69 | 98 | 0.0 | 3.5 | 0.00 | 0.00 | 0.00 | 86 | 1010.7 |
| 20260505053020 | 69 | 97 | 0.0 | 3.5 | 0.00 | 0.00 | 0.00 | 86 | 1010.9 |
| 20260505052504 | 69 | 284 | 0.0 | 2.6 | 0.00 | 0.00 | 0.00 | 86 | 1010.9 |
| 20260505052009 | 69 | 284 | 0.0 | 2.6 | 0.00 | 0.00 | 0.00 | 86 | 1010.9 |
| 20260505051533 | 70 | 108 | 0.0 | 4.3 | 0.00 | 0.00 | 0.00 | 86 | 1011.0 |
| 20260505051009 | 70 | 148 | 0.0 | 4.3 | 0.00 | 0.00 | 0.00 | 85 | 1011.0 |
| 20260505050511 | 70 | 261 | 0.0 | 4.3 | 0.00 | 0.00 | 0.00 | 85 | 1011.1 |
| 20260505041527 | 71 | 195 | 0.0 | 7.0 | 0.00 | 0.00 | 0.00 | 83 | 1011.1 |
| 20260505041007 | 71 | 257 | 0.0 | 7.0 | 0.00 | 0.00 | 0.00 | 83 | 1011.1 |
| 20260505040504 | 71 | 131 | 0.0 | 2.6 | 0.00 | 0.00 | 0.00 | 83 | 1011.0 |
| 20260505040026 | 71 | 128 | 0.0 | 4.3 | 0.00 | 0.00 | 0.00 | 82 | 1010.9 |
| 20260505035503 | 71 | 97 | 0.0 | 4.3 | 0.00 | 0.00 | 0.00 | 82 | 1011.1 |
| 20260505035008 | 71 | 121 | 0.9 | 4.3 | 0.00 | 0.00 | 0.00 | 82 | 1011.3 |
| 20260505034524 | 71 | 214 | 0.0 | 4.3 | 0.00 | 0.00 | 0.00 | 81 | 1011.2 |
| 20260505034004 | 72 | 194 | 0.0 | 2.6 | 0.00 | 0.00 | 0.00 | 81 | 1011.1 |
| 20260505033511 | 72 | 111 | 0.0 | 5.2 | 0.00 | 0.00 | 0.00 | 81 | 1011.0 |
| 20260505033024 | 71 | 117 | 0.0 | 5.2 | 0.00 | 0.00 | 0.00 | 81 | 1011.2 |
| 20260505032505 | 71 | 222 | 1.7 | 5.2 | 0.00 | 0.00 | 0.00 | 81 | 1011.4 |
| 20260505032008 | 72 | 98 | 0.0 | 2.6 | 0.00 | 0.00 | 0.00 | 81 | 1011.4 |
| 20260505031520 | 72 | 117 | 0.0 | 2.6 | 0.00 | 0.00 | 0.00 | 81 | 1011.3 |
| 20260505031007 | 72 | 123 | 0.0 | 2.6 | 0.00 | 0.00 | 0.00 | 80 | 1011.3 |
| 20260505030508 | 72 | 251 | 0.0 | 5.2 | 0.00 | 0.00 | 0.00 | 80 | 1011.3 |
| 20260505030017 | 72 | 116 | 0.0 | 5.2 | 0.00 | 0.00 | 0.00 | 79 | 1011.1 |
| 20260505025513 | 72 | 155 | 0.0 | 2.6 | 0.00 | 0.00 | 0.00 | 79 | 1011.2 |
| 20260505025008 | 72 | 134 | 0.9 | 4.3 | 0.00 | 0.00 | 0.00 | 79 | 1011.1 |
| 20260505024526 | 72 | 238 | 0.9 | 4.3 | 0.00 | 0.00 | 0.00 | 79 | 1011.0 |
| 20260505024008 | 73 | 141 | 0.0 | 5.2 | 0.00 | 0.00 | 0.00 | 79 | 1010.9 |